Tracking 21045 objects as of 4-Aug-2020
HD Live streaming from Space Station
objects crossing your sky now

ARIANE 1 R/B

Track ARIANE 1 R/B now!
10-day predictions


NORAD ID: 16615
Int'l Code: 1986-019C
Perigee: 785.3 km
Apogee: 800.4 km
Inclination: 98.5 °
Period: 100.6 minutes
Semi major axis: 7163 km
RCS: 7.0687 m2 (large)
Launch date: February 22, 1986
Source: France (FR)
Launch site: FRENCH GUIANA (FRGUI)

Note: This is a ROCKET BODY
aabbcc
Your satellite tracking list
Your tracking list is empty




NASA's NSSDC Master Catalog

Two Line Element Set (TLE):
1 16615U 86019C   20217.18349277  .00000021  00000-0  23809-4 0  9995
2 16615  98.4746 281.4097 0010514 269.5549 149.2426 14.31801971803195
Source of the keplerian elements: AFSPC